Location: Chilton Park
(37.7711°N, 100.0276°W)
Time: 20:09:56
(UTC+00:00)

Cosmos 1500 - Pass Details

Date: 08 December 2021
Orbit: 495 x 516 km, 82.5° (Epoch: 16 January)

Event Time Altitude Azimuth Distance (km) Brightness Sun altitude
Rises 12:52:35 0° 189° (S) 2,617 6.9 -9.9°
Reaches altitude 10° 12:54:43 10° 191° (S) 1,733 6.0 -9.5°
Maximum altitude 12:58:31 76° 276° (W) 532 3.1 -8.8°
Drops below altitude 10° 13:02:19 10° 4° (N) 1,735 5.7 -8.1°
Sets 13:04:27 0° 6° (N) 2,621 6.6 -7.7°
